Weather in Faya-Largeau

Chad     17°55′38″N   19°05′59″E
temp.,
°C
wind,
m/s
gust,
m/s
humid.,
%
clouds,
%
prec.,
mm/h
press.,
hPa
HPBL,
m
25 february, thu
thu2501:00+17ne1017170 0.0 1018363
04:00+15ne1017180 0.0 1018333
07:00+14ne1016190 0.0 1020376
10:00+22ene1215130 0.0 10201140
13:00+27ene1113110 0.0 10151342
16:00+27ene912120 0.0 10131364
19:00+22ne68170 0.0 101496
22:00+21ne917190 0.0 1016312
26 february, fri
fri2601:00+19ne915210 0.0 1015282
04:00+17ne814230 0.0 1014244
07:00+16ne915230 0.0 1017332
10:00+24ene1012110 0.0 1017899
13:00+29ene8970 0.0 10131349
16:00+29ne7860 0.0 10111332
19:00+24ne5680 0.0 101258
22:00+21ne71090 0.0 1014149
27 february, sat
sat2701:00+20ne813100 0.0 1013200
04:00+19ne915120 0.0 1013245
07:00+18ne914130 0.0 1015277
10:00+26ene81070 0.0 1016837
13:00+31ene7760 0.0 10121351
16:00+32ne6660 0.0 10101746
19:00+25ne5690 0.0 101246
22:00+23ne711100 0.0 1013144
28 february, sun
sun2801:00+21ne916100 0.0 1013258
04:00+18ne1119130 0.0 1014359
07:00+17ne1321180 0.0 1016418
10:00+24ne1316120 0.0 1017876
13:00+29ne101180 0.0 10131342
16:00+30ne91070 0.0 10111273
19:00+24ne711110 0.0 1013126
22:00+22ne916130 0.0 1015230
1 march, mon
mon101:00+20ne1119140 0.0 1015317
04:00+18ne1119170 0.0 1014304
07:00+17ne1117200 0.0 1016363
10:00+25ne1113120 0.0 1017962
13:00+30ene9980 0.0 10131622
16:00+31ne8970 0.0 10111743
19:00+24ne710110 0.0 1013113
22:00+22nne916120 0.0 1015237